Location: Hausen
(48.1397°N, 11.0194°E)
Time: 04:27:28
(UTC+00:00)

Daily predictions for brighter satellites

Satellite Brightness Start Highest point End
(mag) Time Altitude Azimuth Time Altitude Azimuth Time Altitude Azimuth
Resurs 1-4 Rocket 4.0 00:01:04 10° NE 00:04:47 19° E 00:04:50 19° E
Cosmos 1464 Rocket 4.2 00:00:56 10° NNW 00:06:35 65° NW 00:06:35 65° NW
Cosmos 909 Rocket 4.4 00:06:56 76° SW 00:07:43 90° NW 00:16:57 10° NE
Cosmos 2360 Rocket 3.0 00:09:55 44° ENE 00:09:55 44° ENE 00:14:16 10° NE
Aureole 3 Rocket 4.5 00:06:50 10° N 00:10:25 38° NNE 00:10:25 38° NNE
Lacrosse 4 Rocket 3.5 00:15:02 25° N 00:15:02 25° N 00:16:55 10° NNE
Cosmos 2263 Rocket 4.4 00:09:35 10° WNW 00:10:39 13° WNW 00:10:39 13° WNW
NOSS 3-4 (A) 4.4 00:16:26 34° E 00:16:26 34° E 00:20:39 10° NE
NOSS 3-4 (C) 4.4 00:16:29 33° E 00:16:29 33° E 00:20:42 10° NE
Cosmos 2322 Rocket 2.5 00:19:32 62° NE 00:19:32 62° NE 00:24:14 10° NNE
Cosmos 2034 Rocket 4.0 00:19:44 10° NNW 00:25:21 68° NW 00:25:21 68° NW
IDEFIX/ARIANE 42P 3.8 00:21:19 10° NNE 00:25:44 32° E 00:25:44 32° E
NOSS 3-2 (C) 4.0 00:19:25 10° NW 00:26:40 64° WSW 00:26:40 64° WSW
Cosmos 2219 Rocket 3.2 00:27:22 36° E 00:27:22 36° E 00:31:54 10° NE
SL-16 R/B 2.6 00:35:17 56° NW 00:35:17 56° NW 00:40:34 10° NNE
Cosmos 1844 4.5 00:29:46 10° NNW 00:33:46 43° NW 00:33:46 43° NW
USA 267 3.4 00:42:48 54° W 00:42:48 54° W 00:47:59 10° WNW
GEOS 3 Rocket 4.5 00:49:53 40° WNW 00:49:53 40° WNW 00:53:18 10° NW
Meteor 1-26 Rocket 4.2 00:48:58 74° E 00:48:58 74° E 00:54:43 10° NNE
Cosmos 1634 Rocket 3.8 00:45:20 10° N 00:51:41 88° W 00:52:05 80° S
ADEOS II 3.4 00:47:45 10° NE 00:52:19 29° E 00:53:12 28° ESE
Timation 2 Rocket 4.2 00:47:13 10° NW 00:52:59 57° W 00:52:59 57° W
SL-16 R/B 3.6 00:51:35 15° SE 00:56:15 41° ENE 01:02:01 10° N
Cosmos 1980 Rocket 4.5 00:57:35 12° WNW 01:00:14 15° NW 01:03:29 10° N
Cosmos 1844 Rocket 4.2 00:55:26 10° NW 00:58:03 24° WNW 00:58:03 24° WNW
CZ-2D R/B 2.5 00:58:37 10° NNE 01:03:52 54° E 01:04:20 52° ESE
Meteor 1-5 Rocket 4.4 00:59:02 10° NNW 01:04:15 61° WNW 01:04:15 61° WNW
Cosmos 1842 Rocket 4.3 01:13:46 48° E 01:13:46 48° E 01:17:55 10° NNE
Cosmos 1900 4.4 01:08:51 10° NNW 01:13:59 75° NE 01:14:28 69° E
Cosmos 1943 Rocket 4.2 01:13:49 10° N 01:18:35 27° NE 01:23:20 10° ESE
COSMOS 2428 3.2 01:22:41 44° SE 01:23:46 50° ESE 01:29:16 10° NE
USA 238 DEB 4.1 01:19:04 10° NW 01:26:01 47° WSW 01:26:01 47° WSW
USA 238 4.1 01:19:10 10° NW 01:26:12 48° WSW 01:26:14 48° WSW
IRIDIUM 104 4.2 01:21:18 10° N 01:26:34 84° E 01:27:10 70° SSE
Meteor 1-11 Rocket 4.4 01:24:49 10° N 01:30:17 52° ENE 01:34:01 20° SE
Cosmos 2237 Rocket 3.9 01:29:23 17° SE 01:32:06 24° ESE 01:36:35 10° NE
CZ-2C R/B 2.5 01:31:22 63° S 01:32:18 83° WSW 01:37:44 10° NNW
Cosmos 489 Rocket 4.4 01:27:25 10° NNW 01:33:35 58° WSW 01:34:06 56° SW
IRIDIUM 114 4.2 01:30:28 10° N 01:35:43 82° W 01:36:18 70° SSW
BREEZE-M DEB (TANK) 4.2 01:37:58 16° E 01:37:58 16° E 01:38:31 10° ENE
Cosmos 1867 3.6 01:31:35 10° NW 01:37:07 79° NE 01:42:34 10° SE
CZ-2C R/B 3.3 01:32:59 10° NNE 01:38:02 65° ESE 01:39:23 47° SSE
NPP 3.6 01:33:29 10° N 01:38:50 65° WNW 01:39:31 59° WSW
Cosmos 2221 3.4 01:40:19 37° NW 01:40:19 37° NW 01:43:33 10° N
Cosmos 2322 3.7 01:38:31 58° S 01:39:41 80° ESE 01:45:26 10° NNE
AQUA 4.1 01:35:16 10° NNE 01:39:58 60° ESE 01:40:52 50° SSE
Cosmos 2279 Rocket 4.0 01:35:54 10° NNW 01:42:00 57° W 01:42:58 51° SW
IRIDIUM 103 4.2 01:39:39 10° N 01:44:51 68° W 01:45:25 63° SW
Resurs 1-4 Rocket 2.1 01:39:47 10° N 01:45:05 69° WNW 01:45:54 59° WSW
Lacrosse 5 2.2 01:44:47 49° WNW 01:45:49 60° NNW 01:50:55 10° NE
COSMOS 2441 4.3 01:42:15 10° NNE 01:47:11 87° WNW 01:47:56 64° SSW
Cosmos 2333 Rocket 2.9 01:46:53 35° W 01:48:05 39° NW 01:53:22 10° NNE
Nadezhda 4 Rocket 4.0 01:45:46 37° S 01:48:18 76° E 01:54:26 10° NNE
ALOS 3.0 01:44:30 10° NNE 01:49:00 47° E 01:50:36 33° SSE
USA 215 3.9 01:42:49 10° NE 01:49:04 50° NNW 01:53:22 20° W
Cosmos 44 Rocket 3.4 01:48:57 58° WSW 01:49:48 71° NW 01:54:59 10° NE
Lacrosse 4 Rocket 4.0 01:51:52 10° NW 01:52:19 10° NNW 01:52:47 10° NNW
Cosmos 972 Rocket 4.2 01:51:40 52° WSW 01:52:38 60° WNW 01:57:43 10° NNE
Cosmos 2360 Rocket 3.2 01:51:39 29° WNW 01:53:03 32° NW 01:58:07 10° NNE
Molniya-1 4.2 01:52:55 52° SW 01:54:10 88° SE 02:05:36 10° NE
NOSS 0 Rocket 4.4 01:52:16 31° S 01:55:00 52° ESE 02:00:56 10° NE
Cosmos 1733 4.5 01:54:18 10° N 01:57:41 36° ENE 01:59:42 20° SE
Sich 1 3.4 01:55:03 10° N 01:59:15 61° ENE 02:01:15 29° SSE
BlueWalker 3 2.4 01:58:04 38° NW 01:59:18 60° NNE 02:03:05 10° ESE
Meteor 2-17 Rocket 4.5 01:58:13 32° S 02:01:14 80° E 02:07:23 10° NNE
SAR-Lupe-1 4.0 01:57:41 10° NNE 02:01:17 85° ENE 02:01:17 85° ENE
Cosmos 2278 Rocket 2.3 01:56:38 10° NNW 02:02:21 77° ENE 02:08:01 10° SSE
Cosmos 2344 4.1 01:54:35 10° NW 02:02:58 88° SW 02:14:38 10° SE
Cosmos 2322 Rocket 3.7 02:01:19 20° WNW 02:03:16 24° NW 02:07:45 10° N
IDEFIX/ARIANE 42P 3.2 02:00:47 10° N 02:05:34 39° WNW 02:06:30 36° W
NOSS 3-4 (A) 3.8 02:03:50 34° W 02:05:56 49° NW 02:11:56 10° NE
NOSS 3-4 (C) 3.8 02:03:53 34° W 02:05:59 50° NW 02:12:00 10° NE
Cosmos 1743 Rocket 3.7 02:02:53 10° N 02:07:13 71° E 02:09:29 27° SSE
Cosmos 1538 Rocket 4.0 02:07:18 42° SSW 02:09:10 89° ESE 02:14:33 10° NNE
Cosmos 2219 Rocket 2.8 02:09:03 33° W 02:10:42 42° NW 02:16:01 10° NNE
Cosmos 1536 2.6 02:07:12 10° NNW 02:11:03 65° W 02:11:03 65° W
Okean 3 Rocket 4.4 02:07:13 10° NNW 02:10:57 35° WNW 02:10:57 35° WNW
MSX 4.3 02:06:54 10° N 02:12:22 44° WNW 02:14:08 35° WSW
SAR-Lupe-4 3.5 02:08:52 10° N 02:12:23 66° WNW 02:12:23 66° WNW
Cosmos 192 4.3 02:08:06 10° NNW 02:13:02 86° ENE 02:17:56 10° SSE
Gbstr 26 Del rocket 2.7 02:13:49 60° SW 02:14:32 84° SSE 02:18:23 10° ENE
EO 1 Delta rocket 4.3 02:12:24 10° NNE 02:17:04 59° E 02:20:08 21° S
Meteor 2-10 4.2 02:11:28 10° N 02:17:06 82° ENE 02:22:49 10° SSE
COBE Rocket 4.4 02:14:01 10° N 02:18:20 37° WNW 02:19:05 35° W
Meteor 1-28 Rocket 4.2 02:20:06 30° WNW 02:20:06 30° WNW 02:22:32 10° NNW
GP-B 3.0 02:14:45 10° N 02:19:11 74° W 02:20:37 42° SSW
SL-16 R/B 4.4 02:17:10 10° WNW 02:20:21 15° NW 02:23:33 10° N
SL-16 R/B 4.5 02:18:44 10° SE 02:22:36 19° E 02:26:28 10° NE
NOSS 2-2 (E) 3.9 02:21:01 10° NW 02:25:29 72° SW 02:31:50 10° SSE
Cosmos 1726 3.3 02:25:48 10° NNW 02:27:30 24° NW 02:27:30 24° NW
BREEZE-M DEB (TANK) 3.5 02:27:08 28° WNW 02:28:56 79° N 02:38:57 10° E
Okean 1 3.2 02:29:45 48° SW 02:30:32 62° W 02:34:20 10° N
Cosmos 1092 Rocket 4.0 02:26:21 18° S 02:31:08 84° E 02:37:19 10° N
CZ-2C R/B 3.5 02:26:51 10° NNE 02:31:49 45° E 02:36:45 10° S
ADEOS II 2.6 02:27:08 10° N 02:32:05 44° WNW 02:34:05 30° WSW
Meteor 1-19 Rocket 4.3 02:30:32 22° SSW 02:34:30 86° W 02:40:35 10° N
FENGYUN 3A 4.0 02:29:32 10° N 02:34:45 49° WNW 02:37:10 29° SW
Cosmos 2026 Rocket 4.0 02:33:58 17° S 02:39:01 87° W 02:45:26 10° N
Cosmos 1461 2.6 02:35:40 10° NW 02:39:27 57° WSW 02:43:10 10° SSE
SL-16 R/B 2.9 02:36:39 24° SSW 02:39:50 40° W 02:45:40 10° NNW
NOSS 2-2 (D) 3.8 02:35:28 10° NW 02:39:51 74° SW 02:46:04 10° SSE
Kosmos-1783 4.2 02:42:15 24° NE 02:42:15 24° NE 02:43:11 10° NE
ATLAS 5 CENTAUR R/B 3.4 02:38:52 10° NNW 02:43:18 39° NE 02:48:41 10° ESE
Cosmos 1151 Rocket 2.9 02:40:49 24° SSW 02:43:20 83° W 02:47:41 10° N
RESURS DK-1 2.4 02:41:52 35° WSW 02:43:22 60° WNW 02:47:24 10° NNE
CZ-2D R/B 3.4 02:39:12 10° N 02:43:35 26° WNW 02:45:39 21° W
Cosmos 923 Rocket 4.0 02:42:04 21° SSW 02:45:40 82° ESE 02:50:59 10° NNE
Envisat 3.1 02:44:23 10° NNE 02:49:29 80° ESE 02:54:11 12° SSW
Cosmos 921 Rocket 4.1 02:50:17 10° S 02:54:16 42° ESE 02:58:22 10° NNE
Cosmos 1975 2.6 02:55:58 10° N 02:59:50 89° WSW 03:03:42 10° S
Meteor 1-27 Rocket 4.0 02:56:58 19° SW 03:00:56 51° WNW 03:06:30 10° N
Cosmos 1371 Rocket 4.0 02:56:47 10° NNW 03:02:03 89° ENE 03:07:19 10° SSE
Cosmos 1943 Rocket 2.1 02:57:11 10° NNW 03:02:48 66° WSW 03:08:24 10° SSE
Cosmos 1340 2.4 03:00:07 10° N 03:03:34 84° ENE 03:07:00 10° SSE
ATLAS 2AS CENTAUR R/B 3.6 02:58:13 10° SSW 03:05:20 50° ESE 03:12:13 10° NE
Thor Agena Rocket 3.6 03:00:43 10° NNE 03:05:47 81° ESE 03:10:50 10° SSW
Meteor 2-4 Rocket 3.7 03:01:08 10° S 03:06:31 83° E 03:12:04 10° NNE
COSMOS 2428 3.7 03:04:40 18° WSW 03:08:14 33° NW 03:13:22 10° NNE
NOAA 11 4.2 03:03:28 10° NNE 03:08:57 85° WNW 03:14:24 10° SSW
H-2A R/B 3.8 03:04:54 10° NNE 03:09:21 31° E 03:13:51 10° SSE
CZ-4 R/B 4.0 03:04:58 10° N 03:09:39 56° WNW 03:13:28 15° SW
Cosmos 1626 2.6 03:07:28 10° S 03:10:39 51° E 03:13:53 10° NNE
CZ-2C R/B 4.4 03:12:50 13° W 03:13:20 13° W 03:15:48 10° WNW
Cosmos 1666 Rocket 3.6 03:09:25 10° NNW 03:13:51 64° W 03:18:14 10° S
Cosmos 2237 Rocket 2.4 03:11:13 16° SW 03:15:43 61° WNW 03:21:23 10° NNE
Cosmos 1980 3.9 03:12:33 16° SW 03:16:58 56° WNW 03:22:34 10° NNE
Intercosmos 25 Rocket 3.4 03:17:39 10° NNW 03:20:57 51° W 03:25:23 10° S
Cosmos 2369 Rocket 3.5 03:15:35 10° NNW 03:20:59 45° NE 03:26:19 10° SE
S3M 4.3 03:16:10 10° N 03:22:19 71° E 03:28:31 10° SSE
Resurs 1-4 Rocket 4.1 03:21:38 10° NNW 03:23:55 13° NW 03:26:12 10° WNW
Cosmos 2112 Rocket 4.0 03:19:55 10° SSW 03:25:15 75° WNW 03:30:38 10° NNE
ALOS 3.6 03:22:18 10° N 03:25:57 24° WNW 03:28:56 13° WSW
DMSP B5D2-2 4.1 03:23:25 10° S 03:28:34 63° W 03:33:44 10° NNW
Lacrosse 5 3.3 03:25:02 10° WNW 03:29:36 31° N 03:34:10 10° NE
USA 215 4.3 03:25:19 10° ENE 03:31:22 41° N 03:37:24 10° WNW
CRYOSAT 2 4.4 03:28:33 10° N 03:33:27 86° E 03:38:20 10° S
Cosmos 2333 Rocket 4.4 03:32:12 10° NW 03:34:04 11° NNW 03:35:56 10° N
Cosmos 2266 Rocket 4.2 03:28:18 10° S 03:34:22 74° E 03:40:24 10° NNE
YAOGAN 6 2.9 03:33:30 10° N 03:36:35 39° WNW 03:39:40 10° SW
BlueWalker 3 2.5 03:33:55 10° WNW 03:37:26 35° SW 03:40:55 10° SSE
IRS-1D 3.6 03:32:30 10° N 03:37:29 59° WNW 03:42:32 10° SSW
Cosmos 1842 4.2 03:37:05 10° S 03:40:41 48° E 03:44:19 10° NNE
USA 290 2.0 03:42:10 10° NNW 03:45:15 77° WSW 03:48:20 10° SSE
Cosmos 2278 Rocket 3.5 03:41:56 10° WNW 03:45:45 19° W 03:49:33 10° SW
Cosmos 1328 Rocket 4.0 03:41:44 10° SSW 03:45:58 44° WNW 03:50:13 10° N
Cosmos 1340 Rocket 3.7 03:43:27 10° SW 03:46:51 29° WNW 03:50:17 10° N
Cosmos 2315 Rocket 4.3 03:42:12 10° N 03:48:26 75° E 03:54:37 10° SSE
NOSS 3-1 (C) 4.1 03:41:26 10° NW 03:48:44 78° SW 03:57:37 10° SSE
Cosmos 1633 Rocket 3.8 03:48:09 10° NNW 03:51:59 31° W 03:55:50 10° SSW
Cosmos 1680 Rocket 4.1 03:47:37 10° SW 03:52:36 41° WNW 03:57:38 10° N
Cosmos 1553 Rocket 4.5 03:49:04 10° NNW 03:54:51 39° W 04:00:32 10° SSW
Cosmos 2219 Rocket 4.3 03:54:18 10° NW 03:56:17 12° NNW 03:58:15 10° N
